Lid_Strength_Index
0 0 0 -0 0 0 -0 -0 -0 0 -0 -0 -0 -0 0 -0 -0 -0 -0 -1 -1 -2 -2 -1 -1 -1 -1 -1 -2 -1 0 0 0 -0 0 0 -0 0 -0 -0 -0 -0 -0
0 0 0 0 -0 -0 -0 -0 -0 0 0 -0 -0 -0 0 -0 -0 -0 -0 -0 -1 -1 -2 -2 -1 -1 -1 -1 -1 -0 0 0 1 0 0 0 -0 0 0 0 1 1 1
0 0 0 0 0 -0 0 0 0 -0 0 0 0 0 -0 0 0 0 -0 -0 -0 -1 -2 -2 -2 -2 -1 -1 -1 -0 0 0 0 1 0 1 1 1 1 1 1 2 1
-0 0 0 0 -0 -0 -0 0 0 1 1 1 1 1 1 2 1 0 -0 -0 -0 -0 -1 -1 -1 -1 -2 -1 -1 0 0 1 0 0 1 1 1 1 1 1 1 2 2
-0 -0 0 0 -0 -0 0 0 1 1 1 1 1 1 2 2 2 -0 0 0 0 1 0 -1 -1 -1 -1 -1 -1 -0 -0 0 0 0 0 1 1 1 1 1 1 2 2
-0 -0 0 0 -0 0 1 1 1 1 1 1 1 1 3 3 2 1 1 0 1 1 1 -0 -0 1 0 -1 -1 -0 -0 -1 -0 -0 0 0 1 1 1 2 2 2 2
-0 0 0 0 0 1 1 1 1 1 2 1 2 3 3 3 3 2 1 1 1 1 1 0 0 1 1 0 -1 -0 -1 -1 -1 -0 0 0 1 1 1 2 2 2 2
-0 0 0 1 0 1 1 1 1 2 2 1 3 4 6 4 3 1 1 1 1 1 1 1 1 1 2 2 2 -0 -0 -0 -1 -0 -0 -0 -0 0 0 1 1 1 1
1 0 0 0 0 0 1 1 1 2 3 2 2 4 6 7 5 3 2 3 2 1 2 2 1 1 2 2 2 1 2 2 -0 -1 -1 -0 -0 -0 -0 0 0 0 0
0 0 0 0 0 1 1 1 1 2 2 3 2 2 3 4 6 6 3 3 2 3 2 2 2 2 2 1 2 3 4 4 2 0 -1 -1 -1 -1 -1 -1 -1 -1 -1
0 0 0 0 1 1 1 1 1 2 2 3 3 3 4 3 3 5 6 5 3 3 3 2 3 3 2 2 2 2 4 5 4 2 1 -0 -1 -2 -1 -1 -1 -1 -1
1 0 0 0 1 1 1 1 1 1 1 2 2 3 4 4 4 4 5 5 4 3 3 3 3 2 2 2 1 3 5 5 5 3 2 1 -0 -1 -1 -2 -2 -2 -2
2 1 1 1 1 1 1 1 1 1 1 2 2 2 2 4 2 2 3 4 4 4 4 3 2 2 1 2 2 4 4 6 6 4 3 2 2 1 0 -0 -1 -2 -2
1 1 1 1 1 1 2 1 1 1 2 2 2 2 2 2 1 2 3 4 6 5 4 3 2 2 2 2 2 4 2 6 6 6 5 4 3 2 2 1 0 -0 -1
2 1 1 2 1 2 2 1 2 2 2 2 2 1 2 2 1 2 2 3 5 7 7 3 4 2 1 1 2 2 1 4 6 6 6 5 4 3 3 3 2 2 1
2 2 2 1 2 2 2 2 2 2 2 2 1 2 2 2 2 2 2 2 3 5 7 4 4 2 1 1 1 1 1 3 6 6 6 6 6 5 4 3 3 3 2
2 3 3 3 2 2 2 2 2 2 2 2 2 3 2 2 3 3 3 2 3 4 5 4 3 2 2 2 1 2 1 1 1 5 6 6 6 6 6 6 5 5 4
2 3 2 3 4 3 2 3 3 2 2 3 3 3 3 3 3 3 3 3 3 3 4 4 3 3 2 2 1 1 0 -0 0 2 5 5 6 7 7 8 8 7 7
3 3 3 4 5 5 5 4 4 4 4 4 4 3 3 3 4 3 3 3 3 3 2 4 4 2 2 2 2 1 1 0 -0 2 5 9 9 9 10 10 9 9 9
3 3 3 4 4 5 5 5 5 5 5 4 4 4 4 4 4 3 3 2 3 2 3 3 3 3 3 2 1 2 2 1 1 -0 8 9 10 10 11 11 10 10 10
2 2 2 3 4 4 4 5 5 5 5 5 4 4 3 4 6 4 2 2 3 3 3 3 3 3 3 3 3 2 2 2 8 9 6 10 11 12 12 12 12 12 12
1 1 2 2 4 10 13 11 6 4 4 4 5 4 4 6 6 8 9 12 9 4 3 3 3 3 3 8 9 8 8 8 8 12 10 11 12 14 14 13 13 13 12
8 9 9 10 12 12 13 12 9 3 4 5 6 5 6 9 9 7 13 13 13 13 13 8 7 12 11 14 13 11 10 10 11 15 13 14 14 16 14 14 13 13 13
11 12 13 12 13 13 13 12 11 10 12 13 13 12 11 12 13 10 13 15 15 15 15 15 15 16 16 15 14 13 13 14 15 16 16 15 15 17 15 14 13 13 13
14 15 15 14 14 14 13 13 11 13 14 15 15 14 14 14 14 11 14 16 17 17 15 15 15 15 15 15 14 13 15 15 15 16 16 15 15 15 15 15 14 13 13
16 16 16 15 15 15 14 13 13 14 16 16 16 16 15 15 14 14 15 16 17 17 17 17 16 16 16 16 15 16 15 14 14 15 17 15 14 14 15 14 14 13 14